Total_Precipitation_Accumulation
1.70 2.17 2.82 3.48 4.27 5.39 6.06 6.21 5.93 5.23 4.73 4.32 4.07 3.79 3.54 3.25 2.76 2.36 2.08 1.96 1.86 1.79 1.99 1.83 1.86 1.74 1.76 1.82 1.90 2.14 2.24 2.04 2.21 2.53 2.33 2.02 1.78 1.76 1.66 1.58 1.70 1.74 1.82
1.58 2.17 2.94 3.75 4.40 4.97 5.34 5.42 5.04 4.28 3.80 3.54 3.48 3.21 3.02 2.70 2.48 2.23 2.18 1.87 1.79 1.78 1.68 1.86 1.69 1.61 1.79 1.78 1.86 2.09 2.07 1.85 2.00 2.37 2.48 2.20 2.10 1.73 1.25 1.44 1.55 1.61 1.88
1.79 2.53 3.33 4.08 4.43 4.45 4.23 3.95 3.75 3.37 3.24 3.18 3.00 2.79 2.74 2.47 2.31 2.10 2.01 1.72 1.55 1.54 1.58 1.56 1.46 1.55 1.48 1.67 1.84 1.94 2.10 2.07 1.88 1.89 2.25 2.20 2.14 1.91 1.46 1.25 1.32 1.57 1.84
1.93 2.62 3.15 3.39 3.55 3.48 3.18 3.00 2.92 2.83 2.78 2.69 2.58 2.28 2.15 2.11 1.97 1.89 1.91 1.79 1.58 1.53 1.51 1.44 1.53 1.56 1.44 1.70 1.48 1.62 1.95 2.10 1.90 1.86 1.80 1.84 1.99 2.03 1.87 1.59 1.36 1.48 1.57
1.49 1.70 1.90 2.06 2.20 2.23 2.38 2.46 2.58 2.69 2.60 2.53 2.50 2.40 2.13 2.09 2.06 2.06 2.15 2.02 1.80 1.59 1.36 1.41 1.61 1.66 1.53 1.56 1.56 1.73 1.75 1.81 1.86 1.83 1.80 1.95 1.98 1.82 1.87 1.86 1.73 1.62 1.36
0.94 1.04 1.13 1.25 1.48 1.54 1.74 1.95 2.08 2.24 2.41 2.43 2.26 2.17 2.11 2.15 2.19 2.13 1.96 1.77 1.63 1.53 1.41 1.50 1.75 1.74 1.69 1.66 1.62 1.63 1.66 1.83 1.95 1.92 1.80 1.86 1.94 1.93 2.03 1.84 1.77 1.80 1.56
0.76 0.90 1.02 1.12 1.33 1.27 1.35 1.57 1.65 1.68 1.83 1.88 1.84 1.89 2.02 2.07 1.95 1.85 1.77 1.60 1.36 1.34 1.42 1.48 1.68 1.68 1.68 1.60 1.76 1.78 1.69 1.80 1.89 1.89 1.85 1.76 1.69 1.81 1.99 2.03 1.87 1.86 1.79
0.67 0.77 0.78 0.86 0.98 0.95 1.08 1.23 1.32 1.39 1.46 1.57 1.68 1.64 1.78 1.80 1.71 1.77 1.65 1.51 1.29 1.19 1.22 1.32 1.40 1.47 1.52 1.48 1.83 1.73 1.76 1.83 1.76 1.69 2.01 1.91 1.66 1.82 1.95 2.16 2.34 2.21 2.09
0.55 0.62 0.56 0.56 0.68 0.79 0.92 1.04 1.11 1.24 1.27 1.42 1.49 1.45 1.55 1.63 1.67 1.68 1.57 1.39 1.40 1.25 1.28 1.33 1.51 1.63 1.65 1.68 1.89 1.83 1.81 1.93 1.76 1.76 1.93 1.89 1.85 1.85 1.83 2.17 2.48 2.60 2.41
0.47 0.51 0.51 0.46 0.53 0.68 0.93 1.02 1.03 1.16 1.19 1.29 1.30 1.18 1.34 1.46 1.59 1.54 1.46 1.42 1.45 1.39 1.48 1.51 1.63 1.71 1.66 1.65 1.82 1.82 1.91 1.98 1.88 1.87 1.93 1.90 1.89 1.98 1.92 2.06 2.29 2.48 2.65
0.51 0.49 0.49 0.48 0.46 0.57 0.77 0.84 0.98 1.10 1.15 1.22 1.32 1.37 1.37 1.30 1.41 1.43 1.41 1.44 1.49 1.44 1.50 1.60 1.70 1.68 1.72 1.81 1.92 1.79 1.86 1.97 2.15 2.09 2.08 2.14 2.23 2.20 2.12 2.19 2.26 2.39 2.66
0.42 0.44 0.49 0.53 0.49 0.49 0.60 0.74 0.92 1.07 1.12 1.19 1.31 1.39 1.52 1.48 1.42 1.40 1.44 1.48 1.59 1.65 1.64 1.71 1.75 1.60 1.62 1.81 1.89 1.87 1.90 1.95 2.02 2.21 2.43 2.39 2.42 2.35 2.21 2.30 2.25 2.31 2.60
0.53 0.52 0.57 0.61 0.63 0.61 0.63 0.75 0.90 1.06 1.17 1.26 1.34 1.48 1.55 1.45 1.39 1.50 1.59 1.62 1.76 1.92 2.00 1.98 1.82 1.71 1.68 1.76 1.88 1.97 1.99 2.02 2.09 2.23 2.33 2.37 2.52 2.41 2.31 2.25 2.21 2.29 2.46
0.62 0.56 0.55 0.59 0.70 0.83 0.85 0.91 1.15 1.17 1.17 1.36 1.50 1.58 1.60 1.55 1.52 1.60 1.71 1.75 1.82 1.98 2.11 2.06 1.98 1.93 1.84 1.71 1.68 1.74 1.83 2.00 2.16 2.20 2.13 2.22 2.44 2.50 2.48 2.30 2.26 2.36 2.49
0.60 0.52 0.51 0.56 0.67 0.81 0.87 0.99 1.07 1.26 1.31 1.49 1.64 1.69 1.79 1.81 1.85 1.95 1.96 1.89 1.89 1.92 2.07 2.12 2.12 2.07 1.91 1.68 1.72 1.86 1.86 2.04 2.08 2.02 1.91 1.89 2.10 2.34 2.42 2.21 2.20 2.33 2.35
0.58 0.60 0.64 0.67 0.70 0.76 0.84 0.91 0.99 1.20 1.41 1.69 2.00 2.02 2.06 2.06 2.14 2.30 2.38 2.27 2.23 2.31 2.34 2.27 2.21 2.12 1.77 1.85 1.87 1.86 1.92 2.05 2.07 2.03 1.94 1.81 1.78 1.81 1.94 2.07 2.19 2.31 2.28
0.74 0.79 0.89 0.89 0.85 0.87 0.90 0.98 1.09 1.26 1.55 1.84 2.10 2.24 2.28 2.30 2.37 2.47 2.49 2.42 2.51 2.67 2.70 2.58 2.40 2.24 2.15 2.05 1.82 1.76 1.69 1.76 1.81 1.88 1.87 1.59 1.43 1.54 1.47 1.65 1.81 1.93 2.01
0.79 0.86 1.00 1.05 1.02 1.01 1.08 1.21 1.38 1.60 1.88 2.08 2.22 2.33 2.34 2.35 2.39 2.43 2.34 2.37 2.51 2.58 2.62 2.56 2.43 2.31 2.22 2.08 1.72 1.63 1.44 1.50 1.54 1.60 1.60 1.55 1.47 1.44 1.50 1.51 1.50 1.49 1.57
0.84 0.92 1.04 1.15 1.22 1.24 1.34 1.41 1.55 1.74 1.97 2.13 2.15 2.14 2.23 2.31 2.34 2.35 2.40 2.44 2.44 2.32 2.22 2.19 2.19 2.16 2.19 2.11 1.76 1.57 1.40 1.50 1.53 1.56 1.58 1.61 1.54 1.65 1.53 1.47 1.51 1.53 1.54
0.86 0.98 1.00 1.08 1.20 1.31 1.35 1.44 1.61 1.81 2.00 2.14 2.14 2.10 2.21 2.30 2.35 2.41 2.46 2.41 2.32 2.24 2.18 2.08 2.08 2.07 2.06 2.07 1.70 1.55 1.44 1.53 1.55 1.59 1.60 1.60 1.49 1.51 1.37 1.31 1.44 1.46 1.48
0.97 0.97 1.04 1.10 1.15 1.27 1.36 1.47 1.60 1.72 1.83 1.95 2.05 2.17 2.34 2.42 2.44 2.48 2.45 2.37 2.26 2.26 2.25 2.16 2.09 2.05 2.01 2.02 1.73 1.54 1.38 1.52 1.70 1.69 1.63 1.62 1.54 1.26 1.19 1.15 1.16 1.20 1.26
1.03 1.05 1.12 1.25 1.32 1.39 1.43 1.52 1.52 1.60 1.76 1.81 1.93 1.99 2.12 2.24 2.25 2.32 2.27 2.27 2.21 2.15 2.09 1.99 1.89 1.86 1.88 1.78 1.64 1.44 1.31 1.37 1.52 1.63 1.65 1.65 1.52 1.23 1.11 1.00 0.97 0.98 0.95
1.22 1.17 1.16 1.23 1.31 1.41 1.51 1.59 1.57 1.54 1.59 1.68 1.80 1.91 1.98 2.14 2.19 2.20 2.13 2.07 2.02 1.93 1.83 1.74 1.66 1.68 1.72 1.66 1.44 1.25 1.17 1.22 1.30 1.45 1.60 1.51 1.32 1.14 0.98 0.92 0.88 0.84 0.81
1.05 1.09 1.12 1.18 1.35 1.35 1.41 1.52 1.59 1.57 1.61 1.69 1.71 1.80 1.87 1.96 2.13 2.15 2.00 1.88 1.76 1.68 1.66 1.61 1.62 1.66 1.68 1.61 1.42 1.22 1.09 1.11 1.18 1.25 1.33 1.33 1.30 1.23 1.11 1.00 0.89 0.81 0.87
0.91 0.92 0.97 1.01 1.10 1.13 1.18 1.28 1.39 1.44 1.43 1.41 1.37 1.38 1.51 1.67 1.84 1.89 1.83 1.66 1.56 1.63 1.66 1.63 1.61 1.54 1.48 1.52 1.46 1.28 1.21 1.23 1.28 1.23 1.25 1.28 1.36 1.39 1.38 1.34 1.24 1.16 1.14
0.77 0.81 0.84 0.87 0.90 0.96 1.05 1.17 1.35 1.47 1.47 1.37 1.27 1.25 1.26 1.36 1.56 1.76 1.82 1.69 1.47 1.50 1.44 1.38 1.33 1.31 1.28 1.28 1.28 1.22 1.18 1.22 1.22 1.12 1.23 1.40 1.50 1.56 1.57 1.55 1.43 1.28 1.15